Time,TemperatureF,DewpointF,PressureIn,WindDirection,WindDirectionDegrees,WindSpeedMPH,WindSpeedGustMPH,Humidity,HourlyPrecipIn,Conditions,Clouds,dailyrainin,SoftwareType,DateUTC
2013-04-28 00:01:00,58.6,51.8,30.24,WNW,292,0.0,0.0,78,0.00,CLR,,0.00,WeatherDisplay:10.37,2013-04-28 04:01:00,
2013-04-28 00:02:00,58.5,51.6,30.24,WNW,292,0.0,0.0,78,0.00,CLR,,0.00,WeatherDisplay:10.37,2013-04-28 04:02:00,
2013-04-28 00:04:00,58.5,51.6,30.24,WNW,292,0.0,0.0,78,0.00,CLR,,0.00,WeatherDisplay:10.37,2013-04-28 04:04:00,
2013-04-28 00:09:00,58.5,52.0,30.24,WNW,292,0.0,0.0,79,0.00,CLR,,0.00,WeatherDisplay:10.37,2013-04-28 04:09:00,
2013-04-28 00:14:00,58.3,51.8,30.24,WNW,292,0.0,0.0,79,0.00,CLR,,0.00,WeatherDisplay:10.37,2013-04-28 04:14:00,
2013-04-28 00:19:00,58.3,52.1,30.24,WNW,292,0.0,0.0,80,0.00,CLR,,0.00,WeatherDisplay:10.37,2013-04-28 04:19:00,
2013-04-28 00:24:00,58.3,52.5,30.24,WNW,292,0.0,0.0,81,0.00,CLR,,0.00,WeatherDisplay:10.37,2013-04-28 04:24:00,
2013-04-28 00:29:00,58.3,52.5,30.21,WNW,292,0.0,0.0,81,0.00,CLR,,0.00,WeatherDisplay:10.37,2013-04-28 04:29:00,
2013-04-28 00:34:00,58.3,52.5,30.21,WNW,292,0.0,0.0,81,0.00,CLR,,0.00,WeatherDisplay:10.37,2013-04-28 04:34:00,
2013-04-28 00:39:00,58.3,52.8,30.21,WNW,292,0.0,0.0,82,0.00,CLR,,0.00,WeatherDisplay:10.37,2013-04-28 04:39:00,
2013-04-28 00:44:00,58.3,52.8,30.24,WNW,292,0.0,0.0,82,0.00,CLR,,0.00,WeatherDisplay:10.37,2013-04-28 04:44:00,
2013-04-28 00:49:00,58.3,52.8,30.24,WNW,292,0.0,0.0,82,0.00,CLR,,0.00,WeatherDisplay:10.37,2013-04-28 04:49:00,
2013-04-28 00:54:00,58.3,53.1,30.24,WNW,292,0.0,0.0,83,0.00,CLR,,0.00,WeatherDisplay:10.37,2013-04-28 04:54:00,
2013-04-28 00:59:00,58.3,53.1,30.24,WNW,292,0.0,0.0,83,0.00,CLR,,0.00,WeatherDisplay:10.37,2013-04-28 04:59:00,
2013-04-28 01:04:00,58.3,52.8,30.24,WNW,292,0.0,0.0,82,0.00,CLR,,0.00,WeatherDisplay:10.37,2013-04-28 05:04:00,
2013-04-28 01:09:00,58.3,52.8,30.24,WNW,292,0.0,0.0,82,0.00,CLR,,0.00,WeatherDisplay:10.37,2013-04-28 05:09:00,
2013-04-28 01:14:00,58.3,52.8,30.24,WNW,292,0.0,0.0,82,0.00,CLR,,0.00,WeatherDisplay:10.37,2013-04-28 05:14:00,
2013-04-28 01:19:00,58.3,52.5,30.24,WNW,292,0.0,0.0,81,0.00,CLR,,0.00,WeatherDisplay:10.37,2013-04-28 05:19:00,
2013-04-28 01:24:00,58.1,52.3,30.24,WNW,292,0.0,0.0,81,0.00,CLR,,0.00,WeatherDisplay:10.37,2013-04-28 05:24:00,
2013-04-28 01:29:00,58.1,52.3,30.24,WNW,292,0.0,0.0,81,0.00,CLR,,0.00,WeatherDisplay:10.37,2013-04-28 05:29:00,
2013-04-28 01:34:00,58.1,52.3,30.24,WNW,292,0.0,0.0,81,0.00,CLR,,0.00,WeatherDisplay:10.37,2013-04-28 05:34:00,
2013-04-28 01:39:00,58.1,52.3,30.24,WNW,292,0.0,0.0,81,0.00,CLR,,0.00,WeatherDisplay:10.37,2013-04-28 05:39:00,
2013-04-28 01:44:00,58.1,52.3,30.24,WNW,292,0.0,0.0,81,0.00,CLR,,0.00,WeatherDisplay:10.37,2013-04-28 05:44:00,
2013-04-28 01:49:00,58.1,52.3,30.24,WNW,292,0.0,0.0,81,0.00,CLR,,0.00,WeatherDisplay:10.37,2013-04-28 05:49:00,
2013-04-28 01:54:00,58.1,52.3,30.24,WNW,292,0.0,0.0,81,0.00,CLR,,0.00,WeatherDisplay:10.37,2013-04-28 05:54:00,
2013-04-28 01:59:00,57.9,52.1,30.24,WNW,292,0.0,0.0,81,0.00,CLR,,0.00,WeatherDisplay:10.37,2013-04-28 05:59:00,
2013-04-28 02:04:00,57.9,52.1,30.24,WNW,292,0.0,0.0,81,0.00,CLR,,0.00,WeatherDisplay:10.37,2013-04-28 06:04:00,
2013-04-28 02:09:00,57.7,51.6,30.24,WNW,292,0.0,0.0,80,0.00,CLR,,0.00,WeatherDisplay:10.37,2013-04-28 06:09:00,
2013-04-28 02:14:00,57.7,51.9,30.21,WNW,292,0.0,0.0,81,0.00,CLR,,0.00,WeatherDisplay:10.37,2013-04-28 06:14:00,
2013-04-28 02:19:00,57.6,51.8,30.21,WNW,292,0.0,0.0,81,0.00,CLR,,0.00,WeatherDisplay:10.37,2013-04-28 06:19:00,
2013-04-28 02:24:00,57.6,51.8,30.21,WNW,292,0.0,0.0,81,0.00,CLR,,0.00,WeatherDisplay:10.37,2013-04-28 06:24:00,
2013-04-28 02:29:00,57.6,51.8,30.21,WNW,292,0.0,0.0,81,0.00,CLR,,0.00,WeatherDisplay:10.37,2013-04-28 06:29:00,
2013-04-28 02:34:00,57.4,51.6,30.21,WNW,292,0.0,0.0,81,0.00,CLR,,0.00,WeatherDisplay:10.37,2013-04-28 06:34:00,
2013-04-28 02:39:00,57.4,51.6,30.21,WNW,292,0.0,0.0,81,0.00,CLR,,0.00,WeatherDisplay:10.37,2013-04-28 06:39:00,
2013-04-28 02:44:00,57.2,51.8,30.21,WNW,292,0.0,0.0,82,0.00,CLR,,0.00,WeatherDisplay:10.37,2013-04-28 06:44:00,
2013-04-28 02:49:00,57.0,51.9,30.21,WNW,292,0.0,0.0,83,0.00,CLR,,0.00,WeatherDisplay:10.37,2013-04-28 06:49:00,
2013-04-28 02:54:00,57.0,51.9,30.21,WNW,292,0.0,0.0,83,0.00,CLR,,0.00,WeatherDisplay:10.37,2013-04-28 06:54:00,
2013-04-28 02:59:00,57.0,51.9,30.21,WNW,292,0.0,0.0,83,0.00,CLR,,0.00,WeatherDisplay:10.37,2013-04-28 06:59:00,
2013-04-28 03:04:00,57.0,52.2,30.21,WNW,292,0.0,0.0,84,0.00,CLR,,0.00,WeatherDisplay:10.37,2013-04-28 07:04:00,
2013-04-28 03:09:00,56.8,52.1,30.21,WNW,292,0.0,0.0,84,0.00,CLR,,0.00,WeatherDisplay:10.37,2013-04-28 07:09:00,
2013-04-28 03:14:00,56.8,52.1,30.21,WNW,292,0.0,0.0,84,0.00,CLR,,0.00,WeatherDisplay:10.37,2013-04-28 07:14:00,
2013-04-28 03:19:00,56.8,52.1,30.21,WNW,292,0.0,0.0,84,0.00,CLR,,0.00,WeatherDisplay:10.37,2013-04-28 07:19:00,
2013-04-28 03:24:00,56.8,52.4,30.21,WNW,292,0.0,0.0,85,0.00,CLR,,0.00,WeatherDisplay:10.37,2013-04-28 07:24:00,
2013-04-28 03:29:00,56.8,52.4,30.21,WNW,292,0.0,0.0,85,0.00,CLR,,0.00,WeatherDisplay:10.37,2013-04-28 07:29:00,
2013-04-28 03:34:00,56.8,52.4,30.21,WNW,292,0.0,0.0,85,0.00,CLR,,0.00,WeatherDisplay:10.37,2013-04-28 07:34:00,
2013-04-28 03:39:00,56.8,52.4,30.21,WNW,292,0.0,0.0,85,0.00,CLR,,0.00,WeatherDisplay:10.37,2013-04-28 07:39:00,
2013-04-28 03:44:00,56.8,52.4,30.21,WNW,292,0.0,0.0,85,0.00,CLR,,0.00,WeatherDisplay:10.37,2013-04-28 07:44:00,
2013-04-28 03:49:00,57.0,52.6,30.21,WNW,292,0.0,0.0,85,0.00,CLR,,0.00,WeatherDisplay:10.37,2013-04-28 07:49:00,
2013-04-28 03:54:00,57.0,52.6,30.21,WNW,292,0.0,0.0,85,0.00,CLR,,0.00,WeatherDisplay:10.37,2013-04-28 07:54:00,
2013-04-28 03:59:00,57.0,52.6,30.21,WNW,292,0.0,0.0,85,0.00,CLR,,0.00,WeatherDisplay:10.37,2013-04-28 07:59:00,
2013-04-28 04:04:00,57.0,52.6,30.21,WNW,292,0.0,0.0,85,0.00,CLR,,0.00,WeatherDisplay:10.37,2013-04-28 08:04:00,
2013-04-28 04:09:00,57.0,52.6,30.21,WNW,292,0.0,0.0,85,0.00,CLR,,0.00,WeatherDisplay:10.37,2013-04-28 08:09:00,
2013-04-28 04:14:00,56.8,52.4,30.18,WNW,292,0.0,0.0,85,0.00,CLR,,0.00,WeatherDisplay:10.37,2013-04-28 08:14:00,
2013-04-28 04:19:00,56.8,52.4,30.18,WNW,292,0.0,0.0,85,0.00,CLR,,0.00,WeatherDisplay:10.37,2013-04-28 08:19:00,
2013-04-28 04:24:00,56.8,52.4,30.18,WNW,292,0.0,0.0,85,0.00,CLR,,0.00,WeatherDisplay:10.37,2013-04-28 08:24:00,
2013-04-28 04:29:00,56.8,52.4,30.21,WNW,292,0.0,0.0,85,0.00,CLR,,0.00,WeatherDisplay:10.37,2013-04-28 08:29:00,
2013-04-28 04:33:00,56.8,52.4,30.21,WNW,292,0.0,0.0,85,0.00,CLR,,0.00,WeatherDisplay:10.37,2013-04-28 08:33:00,
2013-04-28 04:39:00,56.7,52.2,30.21,WNW,292,0.0,0.0,85,0.00,CLR,,0.00,WeatherDisplay:10.37,2013-04-28 08:39:00,
2013-04-28 04:43:00,56.7,52.2,30.21,WNW,292,0.0,0.0,85,0.00,CLR,,0.00,WeatherDisplay:10.37,2013-04-28 08:43:00,
2013-04-28 04:48:00,56.7,52.5,30.21,WNW,292,0.0,0.0,86,0.00,CLR,,0.00,WeatherDisplay:10.37,2013-04-28 08:48:00,
2013-04-28 04:53:00,56.5,52.3,30.21,WNW,292,0.0,0.0,86,0.00,CLR,,0.00,WeatherDisplay:10.37,2013-04-28 08:53:00,
2013-04-28 04:58:00,56.5,52.3,30.21,WNW,292,0.0,0.0,86,0.00,CLR,,0.00,WeatherDisplay:10.37,2013-04-28 08:58:00,
2013-04-28 05:03:00,56.3,51.8,30.21,WNW,292,0.0,0.0,85,0.00,CLR,,0.00,WeatherDisplay:10.37,2013-04-28 09:03:00,
2013-04-28 05:08:00,56.3,51.8,30.21,WNW,292,0.0,0.0,85,0.00,CLR,,0.00,WeatherDisplay:10.37,2013-04-28 09:08:00,
2013-04-28 05:13:00,56.3,52.2,30.21,WNW,292,0.0,0.0,86,0.00,CLR,,0.00,WeatherDisplay:10.37,2013-04-28 09:13:00,
2013-04-28 05:18:00,56.3,52.2,30.21,WNW,292,0.0,0.0,86,0.00,CLR,,0.00,WeatherDisplay:10.37,2013-04-28 09:18:00,
2013-04-28 05:23:00,56.3,51.8,30.21,WNW,292,0.0,0.0,85,0.00,CLR,,0.00,WeatherDisplay:10.37,2013-04-28 09:23:00,
2013-04-28 05:28:00,56.3,52.2,30.21,WNW,292,0.0,0.0,86,0.00,CLR,,0.00,WeatherDisplay:10.37,2013-04-28 09:28:00,
2013-04-28 05:33:00,56.3,52.2,30.21,WNW,292,0.0,0.0,86,0.00,CLR,,0.00,WeatherDisplay:10.37,2013-04-28 09:33:00,
2013-04-28 05:38:00,56.1,52.0,30.21,WNW,292,0.0,0.0,86,0.00,CLR,,0.00,WeatherDisplay:10.37,2013-04-28 09:38:00,
2013-04-28 05:43:00,56.3,52.2,30.21,WNW,292,0.0,0.0,86,0.00,CLR,,0.00,WeatherDisplay:10.37,2013-04-28 09:43:00,
2013-04-28 05:48:00,56.3,51.8,30.21,WNW,292,0.0,0.0,85,0.00,CLR,,0.00,WeatherDisplay:10.37,2013-04-28 09:48:00,
2013-04-28 05:53:00,56.3,51.5,30.21,WNW,292,0.0,0.0,84,0.00,CLR,,0.00,WeatherDisplay:10.37,2013-04-28 09:53:00,
2013-04-28 05:58:00,56.3,51.5,30.21,WNW,292,0.0,0.0,84,0.00,CLR,,0.00,WeatherDisplay:10.37,2013-04-28 09:58:00,
2013-04-28 06:03:00,56.1,51.4,30.21,WNW,292,0.0,0.0,84,0.00,CLR,,0.00,WeatherDisplay:10.37,2013-04-28 10:03:00,
2013-04-28 06:08:00,56.1,51.4,30.21,WNW,292,0.0,0.0,84,0.00,CLR,,0.00,WeatherDisplay:10.37,2013-04-28 10:08:00,
2013-04-28 06:13:00,55.9,51.2,30.21,WNW,292,0.0,0.0,84,0.00,CLR,,0.00,WeatherDisplay:10.37,2013-04-28 10:13:00,
2013-04-28 06:18:00,55.6,50.5,30.21,WNW,292,0.0,0.0,83,0.00,CLR,,0.00,WeatherDisplay:10.37,2013-04-28 10:18:00,
2013-04-28 06:23:00,55.6,50.2,30.21,WNW,292,0.0,0.0,82,0.00,CLR,,0.00,WeatherDisplay:10.37,2013-04-28 10:23:00,
2013-04-28 06:28:00,55.4,50.0,30.21,WNW,292,0.0,0.0,82,0.00,CLR,,0.00,WeatherDisplay:10.37,2013-04-28 10:28:00,
2013-04-28 06:33:00,55.4,50.3,30.21,WNW,292,0.0,0.0,83,0.00,CLR,,0.00,WeatherDisplay:10.37,2013-04-28 10:33:00,
2013-04-28 06:38:00,55.2,50.8,30.21,WNW,292,0.0,0.0,85,0.00,CLR,,0.00,WeatherDisplay:10.37,2013-04-28 10:38:00,
2013-04-28 06:43:00,55.2,50.8,30.21,WNW,292,0.0,0.0,85,0.00,CLR,,0.00,WeatherDisplay:10.37,2013-04-28 10:43:00,
2013-04-28 06:48:00,55.0,50.6,30.21,WNW,292,0.0,0.0,85,0.00,CLR,,0.00,WeatherDisplay:10.37,2013-04-28 10:48:00,
2013-04-28 06:53:00,54.9,50.4,30.21,WNW,292,0.0,0.0,85,0.00,CLR,,0.00,WeatherDisplay:10.37,2013-04-28 10:53:00,
2013-04-28 06:58:00,54.9,50.4,30.21,WNW,292,0.0,0.0,85,0.00,CLR,,0.00,WeatherDisplay:10.37,2013-04-28 10:58:00,
2013-04-28 07:03:00,54.7,50.3,30.21,WNW,292,0.0,0.0,85,0.00,CLR,,0.00,WeatherDisplay:10.37,2013-04-28 11:03:00,
2013-04-28 07:08:00,54.3,49.6,30.21,WNW,292,0.0,0.0,84,0.00,CLR,,0.00,WeatherDisplay:10.37,2013-04-28 11:08:00,
2013-04-28 07:13:00,54.3,49.6,30.21,WNW,292,0.0,0.0,84,0.00,CLR,,0.00,WeatherDisplay:10.37,2013-04-28 11:13:00,
2013-04-28 07:18:00,54.1,49.4,30.21,WNW,292,0.0,0.0,84,0.00,CLR,,0.00,WeatherDisplay:10.37,2013-04-28 11:18:00,
2013-04-28 07:23:00,54.1,49.7,30.21,WNW,292,0.0,0.0,85,0.00,CLR,,0.00,WeatherDisplay:10.37,2013-04-28 11:23:00,
2013-04-28 07:28:00,54.1,50.0,30.21,WNW,292,0.0,0.0,86,0.00,CLR,,0.00,WeatherDisplay:10.37,2013-04-28 11:28:00,
2013-04-28 07:33:00,54.0,50.2,30.21,WNW,292,0.0,0.0,87,0.00,CLR,,0.00,WeatherDisplay:10.37,2013-04-28 11:33:00,
2013-04-28 07:38:00,54.0,49.9,30.21,WNW,292,0.0,0.0,86,0.00,CLR,,0.00,WeatherDisplay:10.37,2013-04-28 11:38:00,
2013-04-28 07:43:00,54.0,49.9,30.21,WNW,292,0.0,0.0,86,0.00,CLR,,0.00,WeatherDisplay:10.37,2013-04-28 11:43:00,
2013-04-28 07:48:00,53.8,49.7,30.21,WNW,292,0.0,0.0,86,0.00,CLR,,0.00,WeatherDisplay:10.37,2013-04-28 11:48:00,
2013-04-28 07:53:00,53.8,49.4,30.21,WNW,292,0.0,0.0,85,0.00,CLR,,0.00,WeatherDisplay:10.37,2013-04-28 11:53:00,
2013-04-28 07:58:00,53.4,49.0,30.24,WNW,292,0.0,0.0,85,0.00,CLR,,0.00,WeatherDisplay:10.37,2013-04-28 11:58:00,
2013-04-28 08:03:00,53.4,49.0,30.24,WNW,292,0.0,0.0,85,0.00,CLR,,0.00,WeatherDisplay:10.37,2013-04-28 12:03:00,
2013-04-28 08:08:00,53.2,48.8,30.24,WNW,292,0.0,0.0,85,0.00,CLR,,0.00,WeatherDisplay:10.37,2013-04-28 12:08:00,
2013-04-28 08:13:00,53.1,48.7,30.24,WNW,292,0.0,0.0,85,0.00,CLR,,0.00,WeatherDisplay:10.37,2013-04-28 12:13:00,
2013-04-28 08:18:00,53.1,49.0,30.24,WNW,292,0.0,0.0,86,0.00,CLR,,0.00,WeatherDisplay:10.37,2013-04-28 12:18:00,
2013-04-28 08:23:00,53.1,49.3,30.24,WNW,292,0.0,0.0,87,0.00,CLR,,0.00,WeatherDisplay:10.37,2013-04-28 12:23:00,
2013-04-28 08:28:00,53.2,50.1,30.24,WNW,292,0.0,0.0,89,0.00,CLR,,0.00,WeatherDisplay:10.37,2013-04-28 12:28:00,
2013-04-28 08:33:00,53.4,50.6,30.24,WNW,292,0.0,0.0,90,0.00,CLR,,0.00,WeatherDisplay:10.37,2013-04-28 12:33:00,
2013-04-28 08:38:00,53.6,50.7,30.24,WNW,292,0.0,0.0,90,0.00,CLR,,0.00,WeatherDisplay:10.37,2013-04-28 12:38:00,
2013-04-28 08:43:00,53.6,51.0,30.24,WNW,292,0.0,0.0,91,0.00,CLR,,0.00,WeatherDisplay:10.37,2013-04-28 12:43:00,
2013-04-28 08:48:00,54.1,51.9,30.24,WNW,292,0.0,0.0,92,0.00,CLR,,0.00,WeatherDisplay:10.37,2013-04-28 12:48:00,
2013-04-28 08:53:00,54.1,51.9,30.24,WNW,292,0.0,0.0,92,0.00,CLR,,0.00,WeatherDisplay:10.37,2013-04-28 12:53:00,
2013-04-28 08:58:00,54.3,52.3,30.21,WNW,292,0.0,0.0,93,0.00,CLR,,0.00,WeatherDisplay:10.37,2013-04-28 12:58:00,
2013-04-28 09:03:00,54.3,52.3,30.21,WNW,292,0.0,0.0,93,0.00,CLR,,0.00,WeatherDisplay:10.37,2013-04-28 13:03:00,
2013-04-28 09:08:00,54.5,52.5,30.21,WNW,292,0.0,0.0,93,0.00,CLR,,0.00,WeatherDisplay:10.37,2013-04-28 13:08:00,
2013-04-28 09:13:00,54.5,52.5,30.21,WNW,292,0.0,0.0,93,0.00,CLR,,0.00,WeatherDisplay:10.37,2013-04-28 13:13:00,
2013-04-28 09:18:00,54.5,52.5,30.21,WNW,292,0.0,0.0,93,0.00,CLR,,0.00,WeatherDisplay:10.37,2013-04-28 13:18:00,
2013-04-28 09:23:00,54.7,52.7,30.21,WNW,292,0.0,0.0,93,0.00,CLR,,0.00,WeatherDisplay:10.37,2013-04-28 13:23:00,
2013-04-28 09:28:00,54.9,52.9,30.21,WNW,292,0.0,0.0,93,0.00,CLR,,0.00,WeatherDisplay:10.37,2013-04-28 13:28:00,
2013-04-28 09:33:00,54.9,52.9,30.21,WNW,292,0.0,0.0,93,0.00,CLR,,0.00,WeatherDisplay:10.37,2013-04-28 13:33:00,
2013-04-28 09:39:00,55.0,52.8,30.21,WNW,292,0.0,0.0,92,0.00,CLR,,0.00,WeatherDisplay:10.37,2013-04-28 13:39:00,
2013-04-28 09:44:00,55.2,52.9,30.21,WNW,292,0.0,0.0,92,0.00,CLR,,0.00,WeatherDisplay:10.37,2013-04-28 13:44:00,
2013-04-28 09:49:00,55.8,53.5,30.21,WNW,292,0.0,0.0,92,0.00,CLR,,0.00,WeatherDisplay:10.37,2013-04-28 13:49:00,
2013-04-28 09:54:00,55.9,53.4,30.21,WNW,292,0.0,0.0,91,0.00,CLR,,0.00,WeatherDisplay:10.37,2013-04-28 13:54:00,
2013-04-28 09:59:00,56.3,53.7,30.21,WNW,292,0.0,0.0,91,0.00,CLR,,0.00,WeatherDisplay:10.37,2013-04-28 13:59:00,
2013-04-28 10:04:00,56.5,53.6,30.21,WNW,292,0.0,0.0,90,0.00,CLR,,0.00,WeatherDisplay:10.37,2013-04-28 14:04:00,
2013-04-28 10:09:00,56.7,53.8,30.21,WNW,292,0.0,0.0,90,0.00,CLR,,0.00,WeatherDisplay:10.37,2013-04-28 14:09:00,
2013-04-28 10:14:00,57.0,54.1,30.21,WNW,292,0.0,0.0,90,0.00,CLR,,0.00,WeatherDisplay:10.37,2013-04-28 14:14:00,
2013-04-28 10:19:00,57.2,53.7,30.21,WNW,292,0.0,0.0,88,0.00,CLR,,0.00,WeatherDisplay:10.37,2013-04-28 14:19:00,
2013-04-28 10:24:00,57.4,53.5,30.21,WNW,292,0.0,0.0,87,0.00,CLR,,0.00,WeatherDisplay:10.37,2013-04-28 14:24:00,
2013-04-28 10:29:00,57.6,52.8,30.21,WNW,292,0.0,0.0,84,0.00,CLR,,0.00,WeatherDisplay:10.37,2013-04-28 14:29:00,
2013-04-28 10:34:00,57.7,52.6,30.21,WNW,292,0.0,0.0,83,0.00,CLR,,0.00,WeatherDisplay:10.37,2013-04-28 14:34:00,
2013-04-28 10:39:00,57.7,51.9,30.21,WNW,292,0.0,0.0,81,0.00,CLR,,0.00,WeatherDisplay:10.37,2013-04-28 14:39:00,
2013-04-28 10:44:00,57.9,50.8,30.21,WNW,292,0.0,0.0,77,0.00,CLR,,0.00,WeatherDisplay:10.37,2013-04-28 14:44:00,
2013-04-28 10:49:00,57.9,50.4,30.21,WNW,292,0.0,0.0,76,0.00,CLR,,0.00,WeatherDisplay:10.37,2013-04-28 14:49:00,
2013-04-28 10:54:00,57.9,49.7,30.21,WNW,292,0.0,0.0,74,0.00,CLR,,0.00,WeatherDisplay:10.37,2013-04-28 14:54:00,
2013-04-28 10:59:00,57.9,49.3,30.21,WNW,292,0.0,0.0,73,0.00,CLR,,0.00,WeatherDisplay:10.37,2013-04-28 14:59:00,
2013-04-28 11:04:00,57.9,49.7,30.21,WNW,292,0.0,0.0,74,0.00,CLR,,0.00,WeatherDisplay:10.37,2013-04-28 15:04:00,
2013-04-28 11:09:00,57.9,49.7,30.21,WNW,292,0.0,0.0,74,0.00,CLR,,0.00,WeatherDisplay:10.37,2013-04-28 15:09:00,
2013-04-28 11:14:00,57.7,49.5,30.21,WNW,292,0.0,0.0,74,0.00,CLR,,0.00,WeatherDisplay:10.37,2013-04-28 15:14:00,
2013-04-28 11:19:00,57.9,50.4,30.21,WNW,292,0.0,0.0,76,0.00,CLR,,0.00,WeatherDisplay:10.37,2013-04-28 15:19:00,
2013-04-28 11:24:00,58.1,51.3,30.21,WNW,292,0.0,0.0,78,0.00,CLR,,0.00,WeatherDisplay:10.37,2013-04-28 15:24:00,
2013-04-28 11:29:00,58.3,51.8,30.21,WNW,292,0.0,0.0,79,0.00,CLR,,0.00,WeatherDisplay:10.37,2013-04-28 15:29:00,
2013-04-28 11:34:00,58.6,52.5,30.21,WNW,292,0.0,0.0,80,0.00,CLR,,0.00,WeatherDisplay:10.37,2013-04-28 15:34:00,
2013-04-28 11:39:00,58.8,52.7,30.21,WNW,292,0.0,0.0,80,0.00,CLR,,0.00,WeatherDisplay:10.37,2013-04-28 15:39:00,
2013-04-28 11:44:00,59.2,52.7,30.21,WNW,292,0.0,0.0,79,0.00,CLR,,0.00,WeatherDisplay:10.37,2013-04-28 15:44:00,
2013-04-28 11:49:00,59.5,53.0,30.21,WNW,292,0.0,0.0,79,0.00,CLR,,0.00,WeatherDisplay:10.37,2013-04-28 15:49:00,
2013-04-28 11:54:00,59.7,52.8,30.21,WNW,292,0.0,0.0,78,0.00,CLR,,0.00,WeatherDisplay:10.37,2013-04-28 15:54:00,
2013-04-28 11:59:00,59.9,51.6,30.21,WNW,292,0.0,0.0,74,0.00,CLR,,0.00,WeatherDisplay:10.37,2013-04-28 15:59:00,
2013-04-28 12:04:00,60.1,51.4,30.21,WNW,292,0.0,0.0,73,0.00,CLR,,0.00,WeatherDisplay:10.37,2013-04-28 16:04:00,
2013-04-28 12:09:00,60.1,51.0,30.21,WNW,292,0.0,0.0,72,0.00,CLR,,0.00,WeatherDisplay:10.37,2013-04-28 16:09:00,
2013-04-28 12:14:00,60.4,51.4,30.21,WNW,292,0.0,0.0,72,0.00,CLR,,0.00,WeatherDisplay:10.37,2013-04-28 16:14:00,
2013-04-28 12:19:00,60.4,51.4,30.21,WNW,292,0.0,0.0,72,0.00,CLR,,0.00,WeatherDisplay:10.37,2013-04-28 16:19:00,
2013-04-28 12:24:00,60.4,51.4,30.21,WNW,292,0.0,0.0,72,0.00,CLR,,0.00,WeatherDisplay:10.37,2013-04-28 16:24:00,
2013-04-28 12:29:00,60.3,50.8,30.21,WNW,292,0.0,0.0,71,0.00,CLR,,0.00,WeatherDisplay:10.37,2013-04-28 16:29:00,
2013-04-28 12:34:00,60.3,51.2,30.21,WNW,292,0.0,0.0,72,0.00,CLR,,0.00,WeatherDisplay:10.37,2013-04-28 16:34:00,
2013-04-28 12:39:00,59.9,51.2,30.21,WNW,292,0.0,0.0,73,0.00,CLR,,0.00,WeatherDisplay:10.37,2013-04-28 16:39:00,
2013-04-28 12:44:00,59.7,51.4,30.21,WNW,292,0.0,0.0,74,0.00,CLR,,0.00,WeatherDisplay:10.37,2013-04-28 16:44:00,
2013-04-28 12:49:00,59.7,51.4,30.21,WNW,292,0.0,0.0,74,0.00,CLR,,0.00,WeatherDisplay:10.37,2013-04-28 16:49:00,
2013-04-28 12:54:00,59.4,51.1,30.21,WNW,292,0.0,0.0,74,0.00,CLR,,0.00,WeatherDisplay:10.37,2013-04-28 16:54:00,
2013-04-28 12:59:00,58.8,50.9,30.18,WNW,292,0.0,0.0,75,0.00,CLR,,0.00,WeatherDisplay:10.37,2013-04-28 16:59:00,
2013-04-28 13:04:00,58.6,51.4,30.18,WNW,292,0.0,0.0,77,0.00,CLR,,0.00,WeatherDisplay:10.37,2013-04-28 17:04:00,
2013-04-28 13:09:00,58.5,51.6,30.18,WNW,292,0.0,0.0,78,0.00,CLR,,0.00,WeatherDisplay:10.37,2013-04-28 17:09:00,
2013-04-28 13:14:00,58.3,51.8,30.18,WNW,292,0.0,0.0,79,0.00,CLR,,0.00,WeatherDisplay:10.37,2013-04-28 17:14:00,
2013-04-28 13:19:00,58.5,53.0,30.18,WNW,292,0.0,0.0,82,0.04,RA,,0.04,WeatherDisplay:10.37,2013-04-28 17:19:00,
2013-04-28 13:24:00,58.8,53.7,30.18,WNW,292,0.0,0.0,83,0.04,RA,,0.04,WeatherDisplay:10.37,2013-04-28 17:24:00,
2013-04-28 13:29:00,59.2,55.0,30.18,WNW,292,0.0,0.0,86,0.04,,,0.04,WeatherDisplay:10.37,2013-04-28 17:29:00,
2013-04-28 13:34:00,59.2,55.0,30.18,WNW,292,0.0,0.0,86,0.04,CLR,,0.04,WeatherDisplay:10.37,2013-04-28 17:34:00,
2013-04-28 13:39:00,58.8,54.6,30.18,WNW,292,0.0,0.0,86,0.04,CLR,,0.04,WeatherDisplay:10.37,2013-04-28 17:39:00,
2013-04-28 13:44:00,58.6,54.1,30.18,WNW,292,0.0,0.0,85,0.04,CLR,,0.04,WeatherDisplay:10.37,2013-04-28 17:44:00,
2013-04-28 13:49:00,58.5,54.0,30.18,WNW,292,0.0,0.0,85,0.04,CLR,,0.04,WeatherDisplay:10.37,2013-04-28 17:49:00,
2013-04-28 13:54:00,58.1,53.6,30.18,WNW,292,0.0,0.0,85,0.04,CLR,,0.04,WeatherDisplay:10.37,2013-04-28 17:54:00,
2013-04-28 13:59:00,58.1,53.6,30.18,WNW,292,0.0,0.0,85,0.04,CLR,,0.04,WeatherDisplay:10.37,2013-04-28 17:59:00,
2013-04-28 14:04:00,57.9,53.8,30.18,WNW,292,0.0,0.0,86,0.04,CLR,,0.04,WeatherDisplay:10.37,2013-04-28 18:04:00,
2013-04-28 14:09:00,57.7,53.9,30.18,WNW,292,0.0,0.0,87,0.04,CLR,,0.04,WeatherDisplay:10.37,2013-04-28 18:09:00,
2013-04-28 14:14:00,57.6,53.7,30.18,WNW,292,0.0,0.0,87,0.04,CLR,,0.04,WeatherDisplay:10.37,2013-04-28 18:14:00,
2013-04-28 14:19:00,57.4,53.5,30.18,WNW,292,0.0,0.0,87,0.00,CLR,,0.04,WeatherDisplay:10.37,2013-04-28 18:19:00,
2013-04-28 14:24:00,57.6,54.0,30.18,WNW,292,0.0,0.0,88,0.00,CLR,,0.04,WeatherDisplay:10.37,2013-04-28 18:24:00,
2013-04-28 14:29:00,57.6,54.3,30.15,WNW,292,0.0,0.0,89,0.00,CLR,,0.04,WeatherDisplay:10.37,2013-04-28 18:29:00,
2013-04-28 14:34:00,57.7,54.5,30.15,WNW,292,0.0,0.0,89,0.00,CLR,,0.04,WeatherDisplay:10.37,2013-04-28 18:34:00,
2013-04-28 14:39:00,57.7,54.5,30.15,WNW,292,0.0,0.0,89,0.00,CLR,,0.04,WeatherDisplay:10.37,2013-04-28 18:39:00,
2013-04-28 14:44:00,57.9,55.0,30.15,WNW,292,0.0,0.0,90,0.00,CLR,,0.04,WeatherDisplay:10.37,2013-04-28 18:44:00,
2013-04-28 14:49:00,57.9,55.0,30.15,WNW,292,0.0,0.0,90,0.00,CLR,,0.04,WeatherDisplay:10.37,2013-04-28 18:49:00,
2013-04-28 14:54:00,58.1,55.5,30.15,WNW,292,0.0,0.0,91,0.00,CLR,,0.04,WeatherDisplay:10.37,2013-04-28 18:54:00,
2013-04-28 14:59:00,57.9,55.3,30.15,WNW,292,0.0,0.0,91,0.00,CLR,,0.04,WeatherDisplay:10.37,2013-04-28 18:59:00,
2013-04-28 15:04:00,58.1,55.5,30.15,WNW,292,0.0,0.0,91,0.00,CLR,,0.04,WeatherDisplay:10.37,2013-04-28 19:04:00,
2013-04-28 15:09:00,58.3,55.7,30.15,WNW,292,0.0,0.0,91,0.00,CLR,,0.04,WeatherDisplay:10.37,2013-04-28 19:09:00,
2013-04-28 15:14:00,58.5,55.8,30.15,WNW,292,0.0,0.0,91,0.00,CLR,,0.04,WeatherDisplay:10.37,2013-04-28 19:14:00,
2013-04-28 15:19:00,58.6,56.3,30.15,WNW,292,0.0,0.0,92,0.00,CLR,,0.04,WeatherDisplay:10.37,2013-04-28 19:19:00,
2013-04-28 15:24:00,58.8,56.5,30.15,WNW,292,0.0,0.0,92,0.00,CLR,,0.04,WeatherDisplay:10.37,2013-04-28 19:24:00,
2013-04-28 15:29:00,59.0,56.4,30.15,WNW,292,0.0,0.0,91,0.00,CLR,,0.04,WeatherDisplay:10.37,2013-04-28 19:29:00,
2013-04-28 15:34:00,59.0,56.4,30.15,WNW,292,0.0,0.0,91,0.00,CLR,,0.04,WeatherDisplay:10.37,2013-04-28 19:34:00,
2013-04-28 15:39:00,59.0,56.4,30.15,WNW,292,0.0,0.0,91,0.00,CLR,,0.04,WeatherDisplay:10.37,2013-04-28 19:39:00,
2013-04-28 15:44:00,59.0,56.4,30.15,WNW,292,0.0,0.0,91,0.00,CLR,,0.04,WeatherDisplay:10.37,2013-04-28 19:44:00,
2013-04-28 15:49:00,58.8,56.5,30.15,WNW,292,0.0,0.0,92,0.00,CLR,,0.04,WeatherDisplay:10.37,2013-04-28 19:49:00,
2013-04-28 15:54:00,58.8,56.5,30.15,WNW,292,0.0,0.0,92,0.00,CLR,,0.04,WeatherDisplay:10.37,2013-04-28 19:54:00,
2013-04-28 15:59:00,58.6,56.3,30.15,WNW,292,0.0,0.0,92,0.00,CLR,,0.04,WeatherDisplay:10.37,2013-04-28 19:59:00,
2013-04-28 16:04:00,58.5,56.1,30.15,NW,315,0.0,0.0,92,0.00,CLR,,0.04,WeatherDisplay:10.37,2013-04-28 20:04:00,
2013-04-28 16:09:00,58.5,56.4,30.15,NW,315,0.0,0.0,93,0.00,CLR,,0.04,WeatherDisplay:10.37,2013-04-28 20:09:00,
2013-04-28 16:14:00,58.1,56.1,30.15,NW,315,0.0,0.0,93,0.00,CLR,,0.04,WeatherDisplay:10.37,2013-04-28 20:14:00,
2013-04-28 16:19:00,58.1,56.1,30.15,NW,315,0.0,0.0,93,0.00,CLR,,0.04,WeatherDisplay:10.37,2013-04-28 20:19:00,
2013-04-28 16:24:00,57.9,55.9,30.15,NW,315,0.0,0.0,93,0.00,CLR,,0.04,WeatherDisplay:10.37,2013-04-28 20:24:00,
2013-04-28 16:29:00,58.1,56.4,30.12,NW,315,0.0,0.0,94,0.04,RA,,0.08,WeatherDisplay:10.37,2013-04-28 20:29:00,
2013-04-28 16:34:00,58.1,56.4,30.12,NW,315,0.0,0.0,94,0.04,RA,,0.08,WeatherDisplay:10.37,2013-04-28 20:34:00,
2013-04-28 16:39:00,58.1,56.4,30.12,NW,315,0.0,0.0,94,0.04,,,0.08,WeatherDisplay:10.37,2013-04-28 20:39:00,
2013-04-28 16:44:00,58.1,56.4,30.12,NW,315,0.0,0.0,94,0.04,CLR,,0.08,WeatherDisplay:10.37,2013-04-28 20:44:00,
2013-04-28 16:49:00,58.1,56.4,30.12,NW,315,0.0,0.0,94,0.04,CLR,,0.08,WeatherDisplay:10.37,2013-04-28 20:49:00,
2013-04-28 16:54:00,58.1,56.7,30.12,NW,315,0.0,0.0,95,0.04,CLR,,0.08,WeatherDisplay:10.37,2013-04-28 20:54:00,
2013-04-28 16:59:00,58.1,56.7,30.12,NW,315,0.0,0.0,95,0.04,CLR,,0.08,WeatherDisplay:10.37,2013-04-28 20:59:00,
2013-04-28 17:04:00,57.9,56.5,30.12,NW,315,0.0,0.0,95,0.04,CLR,,0.08,WeatherDisplay:10.37,2013-04-28 21:04:00,
2013-04-28 17:09:00,57.9,56.5,30.12,NW,315,0.0,0.0,95,0.04,CLR,,0.08,WeatherDisplay:10.37,2013-04-28 21:09:00,
2013-04-28 17:14:00,57.9,56.5,30.12,NW,315,0.0,0.0,95,0.04,CLR,,0.08,WeatherDisplay:10.37,2013-04-28 21:14:00,
2013-04-28 17:19:00,57.9,56.5,30.12,NW,315,0.0,0.0,95,0.04,CLR,,0.08,WeatherDisplay:10.37,2013-04-28 21:19:00,
2013-04-28 17:24:00,57.7,56.3,30.12,NW,315,0.0,0.0,95,0.04,CLR,,0.08,WeatherDisplay:10.37,2013-04-28 21:24:00,
2013-04-28 17:29:00,57.9,56.5,30.12,NW,315,0.0,0.0,95,0.00,CLR,,0.12,WeatherDisplay:10.37,2013-04-28 21:29:00,
2013-04-28 17:34:00,57.7,56.6,30.12,NW,315,0.0,0.0,96,0.04,RA,,0.12,WeatherDisplay:10.37,2013-04-28 21:34:00,
2013-04-28 17:39:00,57.7,56.6,30.12,NW,315,0.0,0.0,96,0.04,RA,,0.12,WeatherDisplay:10.37,2013-04-28 21:39:00,
2013-04-28 17:44:00,57.7,56.6,30.12,NW,315,0.0,0.0,96,0.04,CLR,,0.12,WeatherDisplay:10.37,2013-04-28 21:44:00,
2013-04-28 17:49:00,57.9,56.8,30.12,NW,315,0.0,0.0,96,0.04,CLR,,0.12,WeatherDisplay:10.37,2013-04-28 21:49:00,
2013-04-28 17:54:00,57.9,56.8,30.12,NW,315,0.0,0.0,96,0.04,CLR,,0.12,WeatherDisplay:10.37,2013-04-28 21:54:00,
2013-04-28 17:59:00,57.9,56.8,30.09,NW,315,0.0,0.0,96,0.04,CLR,,0.12,WeatherDisplay:10.37,2013-04-28 21:59:00,
2013-04-28 18:04:00,57.9,57.1,30.09,NW,315,0.0,0.0,97,0.04,CLR,,0.12,WeatherDisplay:10.37,2013-04-28 22:04:00,
2013-04-28 18:09:00,57.9,57.1,30.09,NW,315,0.0,0.0,97,0.04,CLR,,0.12,WeatherDisplay:10.37,2013-04-28 22:09:00,
2013-04-28 18:14:00,57.7,56.9,30.09,NW,315,0.0,0.0,97,0.04,CLR,,0.12,WeatherDisplay:10.37,2013-04-28 22:14:00,
2013-04-28 18:19:00,57.7,56.9,30.09,NW,315,0.0,0.0,97,0.04,CLR,,0.12,WeatherDisplay:10.37,2013-04-28 22:19:00,
2013-04-28 18:24:00,57.9,57.1,30.09,NW,315,0.0,0.0,97,0.04,CLR,,0.12,WeatherDisplay:10.37,2013-04-28 22:24:00,
2013-04-28 18:29:00,57.9,57.1,30.09,NW,315,0.0,0.0,97,0.04,CLR,,0.12,WeatherDisplay:10.37,2013-04-28 22:29:00,
2013-04-28 18:34:00,57.9,57.4,30.09,NW,315,0.0,0.0,98,0.00,CLR,,0.12,WeatherDisplay:10.37,2013-04-28 22:34:00,
2013-04-28 18:39:00,57.9,57.4,30.09,NW,315,0.0,0.0,98,0.00,CLR,,0.12,WeatherDisplay:10.37,2013-04-28 22:39:00,
2013-04-28 18:44:00,57.9,57.4,30.09,NW,315,0.0,0.0,98,0.00,CLR,,0.12,WeatherDisplay:10.37,2013-04-28 22:44:00,
2013-04-28 18:49:00,57.9,57.4,30.09,NW,315,0.0,0.0,98,0.00,CLR,,0.12,WeatherDisplay:10.37,2013-04-28 22:49:00,
2013-04-28 18:54:00,57.9,57.4,30.09,NW,315,0.0,0.0,98,0.00,CLR,,0.12,WeatherDisplay:10.37,2013-04-28 22:54:00,
2013-04-28 18:59:00,57.9,57.4,30.09,NW,315,0.0,0.0,98,0.04,RA,,0.16,WeatherDisplay:10.37,2013-04-28 22:59:00,
2013-04-28 19:04:00,57.9,57.4,30.09,NW,315,0.0,0.0,98,0.04,RA,,0.16,WeatherDisplay:10.37,2013-04-28 23:04:00,
2013-04-28 19:09:00,57.9,57.4,30.09,NW,315,0.0,0.0,98,0.04,,,0.16,WeatherDisplay:10.37,2013-04-28 23:09:00,
2013-04-28 19:14:00,57.9,57.4,30.09,NW,315,0.0,0.0,98,0.04,CLR,,0.16,WeatherDisplay:10.37,2013-04-28 23:14:00,
2013-04-28 19:19:00,57.9,57.4,30.09,NW,315,0.0,0.0,98,0.04,CLR,,0.16,WeatherDisplay:10.37,2013-04-28 23:19:00,
2013-04-28 19:24:00,57.9,57.4,30.09,NW,315,0.0,0.0,98,0.04,CLR,,0.16,WeatherDisplay:10.37,2013-04-28 23:24:00,
2013-04-28 19:29:00,57.9,57.4,30.09,NW,315,0.0,0.0,98,0.04,CLR,,0.16,WeatherDisplay:10.37,2013-04-28 23:29:00,
2013-04-28 19:34:00,57.7,57.2,30.09,NW,315,0.0,0.0,98,0.04,CLR,,0.16,WeatherDisplay:10.37,2013-04-28 23:34:00,
2013-04-28 19:39:00,57.7,57.2,30.09,NW,315,0.0,0.0,98,0.04,CLR,,0.16,WeatherDisplay:10.37,2013-04-28 23:39:00,
2013-04-28 19:44:00,57.6,57.0,30.09,NW,315,0.0,0.0,98,0.04,CLR,,0.16,WeatherDisplay:10.37,2013-04-28 23:44:00,
2013-04-28 19:49:00,57.6,57.0,30.09,NW,315,0.0,0.0,98,0.04,CLR,,0.16,WeatherDisplay:10.37,2013-04-28 23:49:00,
2013-04-28 19:54:00,57.6,57.0,30.09,NW,315,0.0,0.0,98,0.04,CLR,,0.16,WeatherDisplay:10.37,2013-04-28 23:54:00,
2013-04-28 19:59:00,57.4,56.8,30.09,NW,315,0.0,0.0,98,0.00,CLR,,0.16,WeatherDisplay:10.37,2013-04-28 23:59:00,
2013-04-28 20:04:00,57.4,56.8,30.09,NW,315,0.0,0.0,98,0.04,RA,,0.20,WeatherDisplay:10.37,2013-04-29 00:04:00,
2013-04-28 20:09:00,57.2,56.6,30.09,NW,315,0.0,0.0,98,0.04,RA,,0.20,WeatherDisplay:10.37,2013-04-29 00:09:00,
2013-04-28 20:14:00,57.0,56.5,30.09,NW,315,0.0,0.0,98,0.04,,,0.20,WeatherDisplay:10.37,2013-04-29 00:14:00,
2013-04-28 20:19:00,57.0,56.5,30.09,NW,315,0.0,0.0,98,0.04,CLR,,0.20,WeatherDisplay:10.37,2013-04-29 00:19:00,
2013-04-28 20:24:00,57.0,56.5,30.09,NW,315,0.0,0.0,98,0.04,CLR,,0.20,WeatherDisplay:10.37,2013-04-29 00:24:00,
2013-04-28 20:29:00,56.8,56.3,30.09,NW,315,0.0,0.0,98,0.04,CLR,,0.20,WeatherDisplay:10.37,2013-04-29 00:29:00,
2013-04-28 20:34:00,56.8,56.3,30.09,NW,315,0.0,0.0,98,0.08,RA,,0.24,WeatherDisplay:10.37,2013-04-29 00:34:00,
2013-04-28 20:39:00,56.8,56.3,30.09,NW,315,0.0,0.0,98,0.08,RA,,0.24,WeatherDisplay:10.37,2013-04-29 00:39:00,
2013-04-28 20:44:00,56.7,56.1,30.12,NW,315,0.0,0.0,98,0.12,RA,,0.28,WeatherDisplay:10.37,2013-04-29 00:44:00,
2013-04-28 20:49:00,56.7,56.1,30.12,NW,315,0.0,0.0,98,0.12,RA,,0.28,WeatherDisplay:10.37,2013-04-29 00:49:00,
2013-04-28 20:54:00,56.7,56.1,30.12,NW,315,0.0,0.0,98,0.12,CLR,,0.28,WeatherDisplay:10.37,2013-04-29 00:54:00,
2013-04-28 20:59:00,56.7,56.1,30.12,NW,315,0.0,0.0,98,0.17,RA,,0.33,WeatherDisplay:10.37,2013-04-29 00:59:00,
2013-04-28 21:04:00,56.7,56.1,30.12,NW,315,0.0,0.0,98,0.13,RA,,0.33,WeatherDisplay:10.37,2013-04-29 01:04:00,
2013-04-28 21:09:00,56.7,56.1,30.12,NW,315,0.0,0.0,98,0.13,CLR,,0.33,WeatherDisplay:10.37,2013-04-29 01:09:00,
2013-04-28 21:14:00,56.7,56.1,30.12,NW,315,0.0,0.0,98,0.13,CLR,,0.33,WeatherDisplay:10.37,2013-04-29 01:14:00,
2013-04-28 21:19:00,56.7,56.1,30.12,NW,315,0.0,0.0,98,0.13,CLR,,0.33,WeatherDisplay:10.37,2013-04-29 01:19:00,
2013-04-28 21:24:00,56.7,56.1,30.12,NW,315,0.0,0.0,98,0.13,CLR,,0.37,WeatherDisplay:10.37,2013-04-29 01:24:00,
2013-04-28 21:29:00,56.5,55.9,30.12,NW,315,0.0,0.0,98,0.17,RA,,0.37,WeatherDisplay:10.37,2013-04-29 01:29:00,
2013-04-28 21:34:00,56.5,55.9,30.12,NW,315,0.0,0.0,98,0.13,RA,,0.37,WeatherDisplay:10.37,2013-04-29 01:34:00,
2013-04-28 21:39:00,56.5,55.9,30.12,NW,315,0.0,0.0,98,0.13,CLR,,0.37,WeatherDisplay:10.37,2013-04-29 01:39:00,
2013-04-28 21:44:00,56.3,55.7,30.12,NW,315,0.0,0.0,98,0.09,CLR,,0.37,WeatherDisplay:10.37,2013-04-29 01:44:00,
2013-04-28 21:49:00,56.3,55.7,30.12,NW,315,0.0,0.0,98,0.09,CLR,,0.37,WeatherDisplay:10.37,2013-04-29 01:49:00,
2013-04-28 21:54:00,56.3,55.7,30.12,NW,315,0.0,0.0,98,0.13,RA,,0.41,WeatherDisplay:10.37,2013-04-29 01:54:00,
2013-04-28 21:59:00,56.3,55.7,30.12,NW,315,0.0,0.0,98,0.08,RA,,0.41,WeatherDisplay:10.37,2013-04-29 01:59:00,
2013-04-28 22:04:00,56.1,55.6,30.12,NW,315,0.0,0.0,98,0.08,,,0.41,WeatherDisplay:10.37,2013-04-29 02:04:00,
2013-04-28 22:09:00,56.1,55.6,30.12,NW,315,0.0,0.0,98,0.08,CLR,,0.41,WeatherDisplay:10.37,2013-04-29 02:09:00,
2013-04-28 22:14:00,56.1,55.6,30.09,NW,315,0.0,0.0,98,0.08,CLR,,0.41,WeatherDisplay:10.37,2013-04-29 02:14:00,
2013-04-28 22:19:00,56.1,55.6,30.09,NW,315,0.0,0.0,98,0.08,CLR,,0.41,WeatherDisplay:10.37,2013-04-29 02:19:00,
2013-04-28 22:24:00,55.9,55.4,30.09,NW,315,0.0,0.0,98,0.08,CLR,,0.41,WeatherDisplay:10.37,2013-04-29 02:24:00,
2013-04-28 22:29:00,55.9,55.4,30.09,NW,315,0.0,0.0,98,0.04,CLR,,0.41,WeatherDisplay:10.37,2013-04-29 02:29:00,
2013-04-28 22:34:00,55.9,55.4,30.09,NW,315,0.0,0.0,98,0.04,CLR,,0.41,WeatherDisplay:10.37,2013-04-29 02:34:00,
2013-04-28 22:39:00,55.9,55.4,30.09,NNW,338,0.0,0.0,98,0.04,CLR,,0.44,WeatherDisplay:10.37,2013-04-29 02:39:00,
2013-04-28 22:44:00,55.8,55.2,30.09,NNW,338,0.0,0.0,98,0.08,RA,,0.44,WeatherDisplay:10.37,2013-04-29 02:44:00,
2013-04-28 22:49:00,55.8,55.2,30.09,NNW,338,0.0,0.0,98,0.08,RA,,0.44,WeatherDisplay:10.37,2013-04-29 02:49:00,
2013-04-28 22:54:00,55.9,55.4,30.09,NNW,338,0.0,0.0,98,0.04,CLR,,0.44,WeatherDisplay:10.37,2013-04-29 02:54:00,
2013-04-28 22:59:00,55.9,55.4,30.12,NNW,338,0.0,0.0,98,0.08,RA,,0.48,WeatherDisplay:10.37,2013-04-29 02:59:00,
2013-04-28 23:04:00,55.8,55.2,30.12,NNW,338,0.0,0.0,98,0.08,RA,,0.48,WeatherDisplay:10.37,2013-04-29 03:04:00,
2013-04-28 23:09:00,55.8,55.2,30.12,NNW,338,0.0,0.0,98,0.13,RA,,0.54,WeatherDisplay:10.37,2013-04-29 03:09:00,
2013-04-28 23:14:00,55.8,55.2,30.09,NNW,338,0.0,0.0,98,0.13,RA,,0.54,WeatherDisplay:10.37,2013-04-29 03:14:00,
2013-04-28 23:19:00,55.8,55.2,30.09,NNW,338,0.0,0.0,98,0.13,,,0.54,WeatherDisplay:10.37,2013-04-29 03:19:00,
2013-04-28 23:24:00,55.8,55.2,30.09,NNW,338,0.0,0.0,98,0.13,CLR,,0.54,WeatherDisplay:10.37,2013-04-29 03:24:00,
2013-04-28 23:29:00,55.8,55.2,30.09,NNW,338,0.0,0.0,98,0.13,CLR,,0.54,WeatherDisplay:10.37,2013-04-29 03:29:00,
2013-04-28 23:34:00,55.8,55.2,30.09,NNW,338,0.0,0.0,98,0.13,CLR,,0.57,WeatherDisplay:10.37,2013-04-29 03:34:00,
2013-04-28 23:39:00,55.8,55.2,30.09,NNW,338,0.0,0.0,98,0.17,RA,,0.57,WeatherDisplay:10.37,2013-04-29 03:39:00,
2013-04-28 23:44:00,55.6,55.0,30.06,NNW,338,0.0,0.0,98,0.13,RA,,0.57,WeatherDisplay:10.37,2013-04-29 03:44:00,
2013-04-28 23:49:00,55.8,55.2,30.06,NNW,338,0.0,0.0,98,0.13,CLR,,0.57,WeatherDisplay:10.37,2013-04-29 03:49:00,
2013-04-28 23:54:00,55.8,55.2,30.06,NNW,338,0.0,0.0,98,0.13,CLR,,0.57,WeatherDisplay:10.37,2013-04-29 03:54:00,
2013-04-28 23:59:00,55.9,55.4,30.06,NNW,338,0.0,0.0,98,0.09,CLR,,0.57,WeatherDisplay:10.37,2013-04-29 03:59:00,